Wind_Speed
6 7 12 9 7 5 6 3 4 4 8 1 13 6 21 22 18 19 20 19 20 21 23 33 33 34 32 32 36 38 37 40 39 36 32 31 29 24 20 15 14 15 23 22
2 14 8 8 8 8 6 6 6 5 6 9 10 9 19 23 26 24 23 22 23 18 16 24 31 34 35 39 41 39 41 42 43 40 38 35 34 30 26 22 17 16 21 22
11 6 11 9 6 9 6 10 5 7 0 2 5 3 12 17 5 13 17 20 22 23 20 18 25 33 36 36 40 44 46 44 44 43 40 34 30 28 26 24 21 20 21 23
6 8 10 7 10 10 10 5 6 8 5 5 6 5 14 17 18 16 17 19 19 20 19 17 21 30 35 38 40 42 44 44 44 45 39 34 28 25 28 28 25 24 23 23
10 14 17 13 14 8 9 6 7 6 5 1 5 2 7 18 16 21 21 24 22 22 21 22 21 35 42 39 39 42 44 44 42 47 42 39 31 32 27 27 26 26 24 22
15 5 14 17 9 13 5 3 2 0 3 7 12 8 9 10 26 23 20 24 27 25 24 23 33 33 33 37 36 38 40 45 44 47 46 42 37 36 32 27 28 29 27 28
5 18 4 7 8 6 6 7 4 3 4 11 10 7 15 9 15 21 24 25 26 26 25 24 22 21 31 36 39 38 39 39 43 45 44 45 42 41 38 33 29 24 23 26
9 5 17 7 11 11 10 14 6 8 4 7 5 10 13 16 13 19 18 23 24 25 24 25 25 26 33 37 39 40 39 40 39 42 43 44 44 42 42 37 34 31 26 25
9 9 4 12 7 17 8 12 12 3 2 3 5 8 6 9 11 12 13 13 19 24 24 25 24 30 34 36 41 42 41 42 40 43 42 42 45 41 42 41 36 36 33 29
7 2 8 10 10 10 14 8 4 2 11 14 5 7 6 10 17 12 11 16 19 22 22 23 23 26 34 37 39 40 42 44 46 45 44 45 45 44 44 42 39 38 34 34
1 4 4 7 8 19 3 9 4 7 6 10 2 10 9 9 11 13 15 18 22 22 24 23 22 28 35 37 37 40 38 38 39 42 41 38 38 41 42 45 42 40 35 35
7 2 15 18 5 14 19 14 12 5 10 6 11 10 3 17 14 10 11 13 19 23 21 20 20 21 27 30 30 37 40 39 41 40 40 41 41 41 42 45 45 43 40 36
8 4 2 6 3 3 8 10 16 13 1 21 7 6 8 7 7 9 11 10 8 15 14 19 18 17 17 29 35 36 39 42 42 40 40 37 38 39 43 44 43 45 43 44
3 3 5 11 4 5 8 10 15 16 11 14 20 4 4 7 11 9 9 10 9 14 17 18 14 15 16 27 34 35 38 39 39 39 41 41 40 42 44 46 43 42 45 44
4 4 4 7 11 15 15 15 25 19 24 16 14 14 13 10 10 10 10 6 8 9 14 18 18 17 15 19 28 32 31 35 38 38 39 43 41 41 42 41 42 44 41 41
5 4 5 6 10 13 16 19 24 29 23 14 7 8 9 15 9 8 11 9 11 13 17 18 18 18 18 20 32 39 36 36 39 39 43 40 40 40 41 40 39 39 40 41
2 2 5 5 6 10 12 31 20 12 13 18 14 8 8 8 10 13 13 10 13 15 18 14 13 16 16 25 31 33 39 40 41 42 39 38 39 40 40 38 36 39 40 38
5 4 2 5 5 7 12 10 19 17 9 7 5 11 11 14 13 15 12 11 12 11 12 12 11 13 20 30 32 35 29 33 35 37 36 35 37 38 38 38 39 37 37 38
18 6 3 3 3 9 12 3 6 12 9 7 12 10 9 11 1 6 7 7 12 12 13 14 15 18 23 26 29 28 29 30 30 32 34 36 39 39 38 38 40 38 35 34
22 19 7 3 4 6 2 15 20 13 18 15 12 11 10 7 4 12 7 8 11 10 8 9 18 19 22 24 31 29 26 27 30 33 37 40 40 40 40 42 39 38 37 38
9 9 13 10 5 8 12 21 10 8 7 15 11 15 10 8 9 10 7 8 7 8 10 8 16 14 24 29 28 24 25 29 40 37 35 32 36 39 40 36 34 36 37 34
8 10 7 7 7 8 12 8 7 10 22 18 9 7 11 9 7 5 7 6 8 9 8 10 6 11 25 24 26 20 21 38 35 34 33 36 36 34 31 33 31 33 32 33
5 5 8 8 6 3 3 3 8 13 20 16 11 7 8 8 6 8 7 5 5 6 4 4 4 4 4 13 25 20 36 37 37 32 34 37 38 38 38 38 39 37 39 33
6 9 6 6 5 5 9 12 14 20 20 11 7 5 6 8 5 7 6 5 6 6 7 8 9 8 7 11 6 18 15 12 14 22 23 22 25 27 26 27 32 30 31 29
9 6 13 15 4 4 9 11 17 24 15 10 14 16 13 9 8 7 7 8 8 8 9 14 10 9 12 14 15 10 10 16 16 19 19 21 22 21 19 16 3 9 11 21
8 7 8 9 6 4 4 7 14 17 9 11 16 17 18 17 13 11 12 9 10 10 12 12 14 14 16 19 22 20 13 1 8 11 11 11 17 19 24 28 32 36 17 26
Wind_Direction
193 189 209 193 184 179 156 186 182 282 292 153 199 161 179 181 187 193 190 194 199 209 203 198 198 198 195 198 200 203 202 208 209 211 213 209 213 216 217 215 213 218 216 218
165 219 204 194 194 218 206 206 245 259 248 190 217 203 187 181 196 194 189 197 204 199 202 202 203 198 195 197 204 206 207 208 210 211 210 211 221 225 226 222 215 219 216 218
202 224 184 188 190 201 213 208 174 209 116 51 119 163 189 208 228 204 209 205 207 200 190 192 201 202 200 200 200 205 208 207 208 207 209 214 223 225 223 215 216 216 220 225
214 218 187 179 210 193 235 169 158 215 141 213 171 235 190 195 208 207 210 212 211 211 207 196 196 197 203 205 204 204 205 206 207 206 207 208 210 212 224 221 221 224 227 229
215 186 197 211 209 174 241 171 187 210 208 177 236 183 232 183 206 213 206 210 211 211 208 206 198 202 204 201 200 202 205 204 204 206 207 210 209 216 222 223 226 231 233 232
214 195 198 212 193 205 171 313 58 345 154 235 229 198 233 188 210 215 207 214 210 206 212 210 211 204 204 201 202 200 201 206 204 206 206 209 209 214 219 223 225 236 237 234
178 223 216 153 186 185 140 124 257 264 213 233 214 192 229 209 204 209 208 210 209 205 206 209 208 203 201 199 200 199 200 203 203 204 205 209 211 215 215 221 222 226 227 227
183 213 210 199 189 194 195 188 163 191 207 227 160 230 236 218 234 218 213 211 206 203 204 207 208 205 200 201 199 199 198 202 200 202 205 209 213 213 216 221 227 230 232 233
183 234 228 196 176 175 197 195 195 156 208 9 221 278 314 217 244 234 220 214 210 201 203 206 208 206 205 200 201 200 198 201 200 203 204 207 212 211 216 223 227 230 233 237
204 225 212 203 176 218 195 171 161 340 217 240 251 243 213 191 220 228 214 209 214 209 200 209 209 205 204 205 204 204 203 199 199 203 203 207 210 214 219 223 226 225 231 235
83 162 251 138 190 198 167 206 199 175 169 223 220 255 181 212 214 215 214 212 214 206 203 205 210 206 206 203 199 201 202 202 204 201 202 205 206 211 215 223 226 225 227 226
335 256 237 228 219 193 213 215 195 189 227 240 230 233 252 200 214 208 240 221 219 210 209 207 207 204 202 204 199 197 199 200 204 203 202 202 205 207 212 220 224 225 221 221
340 299 224 323 335 246 209 201 207 211 146 230 203 246 237 200 207 212 213 237 232 220 204 205 205 202 199 197 197 200 199 203 201 200 200 204 204 205 211 217 218 224 224 222
5 284 247 247 274 183 208 214 212 199 222 220 233 209 210 211 217 219 230 228 201 189 189 200 203 200 198 198 199 199 203 203 199 199 198 201 204 206 211 216 217 217 223 223
64 283 283 286 295 287 263 226 217 212 219 204 226 206 229 202 204 221 221 216 184 206 201 202 202 193 188 188 197 205 205 200 197 198 202 205 203 207 211 213 214 217 218 220
2 279 329 284 265 255 260 258 234 218 219 229 197 228 212 219 219 219 224 205 202 203 203 213 211 199 198 193 193 196 197 197 196 199 205 204 203 205 208 210 211 213 215 218
294 270 339 269 305 319 256 232 243 246 207 204 208 202 197 240 203 220 231 217 204 205 216 199 208 208 206 205 201 201 199 192 192 201 204 203 202 205 208 208 208 211 212 211
210 172 257 268 313 220 277 196 222 231 230 202 150 189 200 211 223 221 212 203 216 202 209 220 204 209 213 212 203 207 197 194 196 199 200 200 201 207 208 204 208 211 211 210
204 184 244 236 243 290 306 358 234 186 229 208 190 201 208 221 29 260 227 214 205 202 204 213 211 218 217 201 197 183 183 188 193 199 201 201 200 204 204 205 207 208 209 213
193 205 202 185 231 247 100 329 322 313 223 202 185 199 198 129 198 247 201 210 226 220 206 187 204 202 190 190 177 174 178 184 197 202 205 203 203 204 204 206 206 206 206 212
174 194 217 245 253 280 350 333 317 165 239 307 188 202 179 176 201 223 175 206 203 196 209 211 179 184 197 190 175 184 186 194 206 206 207 206 207 207 208 207 206 203 205 208
194 164 183 231 220 254 8 10 5 307 300 294 263 189 178 197 181 192 152 164 161 167 175 195 196 194 195 196 183 189 196 211 207 203 202 202 204 207 207 202 203 204 204 204
235 185 177 203 229 150 166 249 305 316 295 287 285 136 135 143 174 150 144 146 115 107 96 106 219 264 216 193 191 192 212 209 203 195 200 203 204 205 199 197 197 194 195 202
282 196 182 256 222 233 41 4 350 332 311 299 328 21 114 112 84 96 100 74 59 46 46 43 66 60 45 25 266 247 280 280 215 195 207 214 203 203 204 205 204 203 194 191
263 270 216 224 272 268 51 15 341 319 312 26 39 38 39 67 56 67 59 48 42 39 35 46 52 51 44 44 43 18 293 266 228 213 212 205 196 180 152 113 139 191 183 195
231 237 211 218 185 127 80 11 326 310 313 47 55 42 39 41 40 45 49 40 40 40 37 42 38 44 38 38 36 34 39 140 142 102 95 128 139 131 124 113 85 74 102 121
Height
736 751 755 750 749 748 753 757 762 748 731 735 740 752 745 741 749 756 757 760 761 762 759 765 770 775 781 786 790 793 797 800 804 808 813 817 818 821 823 825 827 828 830 832
742 747 738 735 742 745 751 760 763 746 732 741 743 752 741 740 737 740 746 753 752 755 762 763 766 769 773 776 781 787 791 794 797 802 806 811 814 816 819 822 824 826 828 830
737 732 726 734 740 748 749 757 757 755 735 735 746 758 756 745 744 745 745 743 745 744 749 755 759 761 764 768 771 776 781 786 791 795 802 806 810 812 814 817 820 822 825 826
731 717 725 735 739 738 761 734 740 746 758 778 743 790 758 747 747 743 741 741 741 741 741 745 750 754 757 759 764 769 775 780 786 790 795 799 802 806 809 812 816 818 821 824
721 717 723 730 724 729 738 728 739 741 754 758 753 774 753 737 749 740 732 729 729 732 734 737 740 741 743 752 757 762 768 773 778 782 788 793 797 801 805 808 811 814 817 820
704 695 704 708 712 716 720 730 742 747 765 782 752 761 746 749 727 723 721 717 715 720 724 725 728 734 742 747 754 757 762 765 771 776 781 786 790 796 801 804 807 808 812 814
709 707 696 694 721 717 726 756 788 791 789 767 742 762 728 713 706 701 703 703 701 704 711 716 722 727 733 738 742 749 754 758 763 769 774 779 784 790 795 798 801 804 807 808
725 733 701 690 702 719 730 735 781 796 791 763 745 749 706 688 686 685 683 683 687 693 698 704 709 714 720 727 732 738 744 750 756 762 767 774 779 783 788 792 795 798 802 803
720 719 679 676 681 693 720 733 721 754 756 769 747 720 696 684 686 683 685 686 684 683 688 692 697 702 710 716 722 727 733 740 748 753 760 766 772 777 781 784 789 793 796 800
690 712 682 673 674 682 692 706 737 766 767 765 746 730 721 699 689 684 683 680 675 675 676 680 686 692 700 706 713 720 726 730 734 743 749 755 762 769 774 779 781 785 790 794
686 695 686 675 687 689 703 706 711 719 741 739 759 718 689 684 677 678 673 666 661 662 662 667 674 682 689 696 703 709 719 726 732 736 743 750 756 762 768 772 775 778 784 787
700 703 694 683 664 659 669 682 697 723 733 732 710 714 659 656 662 664 661 656 649 648 652 659 665 672 682 689 697 700 707 715 722 729 735 740 747 753 760 763 767 771 776 780
718 716 709 699 681 671 679 677 674 683 706 696 729 714 662 659 659 660 660 656 652 646 649 650 657 665 672 678 684 692 699 702 710 720 727 735 739 744 748 754 759 763 769 772
718 724 712 696 687 673 684 671 667 677 698 688 678 687 667 660 660 653 653 649 646 641 643 644 651 657 662 669 675 681 688 695 702 711 715 722 729 734 739 745 751 755 760 764
730 735 713 699 691 677 672 658 656 670 659 677 670 682 668 660 656 648 642 644 646 648 644 642 644 647 653 660 667 675 682 689 694 702 708 708 717 725 731 736 741 747 752 756
733 729 718 704 679 672 667 653 637 634 647 658 665 670 648 639 643 643 640 640 642 640 637 639 637 638 642 648 652 657 667 677 687 692 693 700 708 714 719 726 732 738 743 747
737 734 725 715 687 682 673 621 637 635 633 640 663 653 639 641 642 638 634 633 632 628 628 633 635 633 634 636 642 649 656 662 671 677 683 692 698 704 710 718 724 727 731 737
730 728 725 718 696 694 617 610 610 626 627 627 628 633 630 624 618 615 616 618 620 620 620 619 622 627 625 629 633 638 651 659 662 666 674 682 690 696 702 707 711 717 723 728
715 722 721 713 703 665 630 613 617 625 633 619 619 619 619 616 613 614 609 606 605 606 606 605 606 611 614 620 624 633 642 648 655 661 666 671 677 684 691 695 698 705 714 720
695 703 700 703 694 682 647 639 627 620 625 598 604 609 610 618 641 616 600 600 600 599 599 600 602 605 611 613 617 627 633 640 644 650 653 658 665 674 678 680 687 695 701 707
699 706 709 699 688 664 649 635 620 639 621 611 595 592 604 613 605 590 589 594 591 593 594 596 599 603 601 607 612 619 625 628 629 637 645 653 660 664 667 675 683 687 692 700
681 685 700 700 682 676 642 634 656 651 631 623 591 585 590 586 589 589 589 591 589 589 591 596 600 597 599 606 610 615 620 617 623 630 638 644 650 658 665 669 676 682 689 692
680 666 672 665 662 644 642 648 644 640 633 617 598 576 580 587 588 588 591 592 590 592 593 592 597 600 604 609 610 612 611 613 617 623 629 633 635 643 647 654 658 663 669 683
669 661 659 657 643 643 634 635 638 634 624 606 594 577 577 586 590 589 592 594 596 598 600 601 604 609 612 613 615 616 616 616 619 617 624 631 634 641 649 653 657 660 664 672
687 665 649 647 642 633 628 640 644 638 626 605 596 594 592 591 597 598 600 601 603 603 603 604 607 610 613 613 614 616 616 617 619 621 625 629 634 640 647 656 663 665 670 676
664 651 651 643 634 633 639 646 650 645 634 615 607 606 604 605 610 611 612 614 614 614 613 612 613 613 615 615 616 616 616 618 622 627 632 637 640 644 650 657 665 666 669 677